Simultaneous Nadir Overpasses (SNOs) Predictions

Prediction of SNOs between GOES-14 and AQUA Satellite Orbit:

Table of predicted SNOs for the next 14.0 days since TLE Epoch: 4/25/2020
Index Date Time (GOES-14) GOES-14 Lat,Lon AQUA Lat,Lon Distance(km) Time Diff (sec)
1 04/25/2020 08:23:45 0.13,-104.14 -0.41,-101.73 274.31 80
2 04/25/2020 20:45:09 -0.11,-104.17 -0.72,-106.92 312.32 80
3 04/27/2020 20:30:17 -0.12,-104.17 -0.09,-103.96 23.90 80
4 04/29/2020 20:18:05 -0.12,-104.17 0.54,-101.00 359.85 80
5 04/30/2020 08:39:20 0.11,-104.12 0.56,-106.15 231.81 80
6 05/02/2020 08:29:48 0.11,-104.12 -0.08,-103.20 104.53 80
7 05/02/2020 20:51:13 -0.10,-104.18 -0.99,-108.40 479.35 80
8 05/04/2020 08:17:36 0.12,-104.12 -0.72,-100.24 441.15 80
9 05/04/2020 20:39:01 -0.10,-104.18 -0.35,-105.44 143.12 80
10 05/06/2020 20:24:08 -0.11,-104.17 0.23,-102.47 193.09 80
11 05/07/2020 08:45:23 0.09,-104.10 0.86,-107.63 401.45 80




NCC Satellite Simultaneous Nadir Overpasses (SNOs) Prediction Service
